Bay City, TX

5:47 AM CDT on May 24, 2017 (GMT -0500)
Bay City

Weather History for KBYY - August, 2013

Change the Weather History Date:

Wednesday, August 7, 2013

  Actual Average (KLBX) Record (KLBX)
Temperature  
Mean Temperature 88 °F -  
Max Temperature 96 °F 90 °F 98 °F (2011)
Min Temperature 79 °F 72 °F 70 °F (2000)
Cooling Degree Days 22    
Growing Degree Days 38 (Base 50)    
Moisture  
Dew Point 76 °F    
Average Humidity 75    
Maximum Humidity 100    
Minimum Humidity 41    
Precipitation  
Precipitation 0.00 in - - ()
Sea Level Pressure  
Sea Level Pressure 29.92 in    
Wind  
Wind Speed 9 mph (South)    
Max Wind Speed 17 mph    
Max Gust Speed 23 mph    
Visibility 7 miles    
Events      
Averages and records for this station are not official NWS values.
T = Trace of Precipitation, MM = Missing Value Source: NWS Daily Summary

Daily Weather History Graph

Daily Weather History Graph

Search for Another Location

Airport or City:

Trip Planner

Search our weather history database for the weather conditions in past years. The results will help you decide how hot, cold, wet, or windy it might be!

Date:

Astronomy

Aug. 07, 2013 Rise Set
Actual Time 6:47 AM CDT 8:10 PM CDT
Civil Twilight 6:22 AM CDT 8:35 PM CDT
Nautical Twilight 5:52 AM CDT 9:05 PM CDT
Astronomical Twilight 5:21 AM CDT 9:36 PM CDT
Moon 7:28 AM CDT (8/7) 8:29 PM CDT (8/7)
Length of Visible Light 14h 12m
Length of Day
13h 22m
New Moon, 1% of the Moon is Illuminated
Aug 7
New Moon
Aug 14
First Quarter
Aug 20
Full
Aug 28
Last Quarter
Sep 5
New

Hourly Weather History & Observations

Time (CDT) Temp. Heat Index Dew Point Humidity Pressure Visibility Wind Dir Wind Speed Gust Speed Precip Events Conditions
12:15 AM 81.3 °F 90.4 °F 79.3 °F 94% 29.94 in 7.0 mi South 5.8 mph - N/A   Clear
12:35 AM 81.5 °F 90.7 °F 79.2 °F 93% 29.95 in 7.0 mi South 5.8 mph - N/A   Clear
12:55 AM 80.8 °F 89.7 °F 80.4 °F 99% 29.95 in 7.0 mi South 5.8 mph - N/A   Clear
1:15 AM 80.6 °F 89.3 °F 80.6 °F 100% 29.95 in 7.0 mi South 5.8 mph - N/A   Clear
1:35 AM 80.4 °F 88.7 °F 80.4 °F 100% 29.95 in 7.0 mi South 5.8 mph - N/A   Clear
1:55 AM 79.9 °F - 79.9 °F 100% 29.95 in 7.0 mi South 5.8 mph - N/A   Clear
2:15 AM 79.9 °F - 79.9 °F 100% 29.95 in 7.0 mi South 5.8 mph - N/A   Clear
2:35 AM 80.1 °F 87.4 °F 80.1 °F 100% 29.95 in 7.0 mi South 5.8 mph - N/A   Clear
2:55 AM 80.4 °F 88.7 °F 80.4 °F 100% 29.95 in 7.0 mi South 5.8 mph - N/A   Scattered Clouds
3:15 AM 80.4 °F 88.7 °F 80.4 °F 100% 29.94 in 7.0 mi SSE 3.5 mph - N/A   Scattered Clouds
3:35 AM 80.1 °F 87.4 °F 80.1 °F 100% 29.94 in 7.0 mi South 5.8 mph - N/A   Scattered Clouds
3:55 AM 80.2 °F 88.0 °F 80.2 °F 100% 29.94 in 7.0 mi South 5.8 mph - N/A   Clear
4:15 AM 80.4 °F 88.7 °F 80.4 °F 100% 29.94 in 7.0 mi South 6.9 mph - N/A   Scattered Clouds
4:35 AM 80.2 °F 88.0 °F 80.2 °F 100% 29.93 in 7.0 mi South 6.9 mph - N/A   Scattered Clouds
4:55 AM 80.4 °F 88.7 °F 80.4 °F 100% 29.93 in 7.0 mi South 9.2 mph - N/A   Clear
5:15 AM 81.0 °F 90.6 °F 81.0 °F 100% 29.93 in 7.0 mi South 9.2 mph - N/A   Clear
5:35 AM 81.0 °F 90.6 °F 81.0 °F 100% 29.93 in 7.0 mi South 9.2 mph - N/A   Clear
5:55 AM 80.6 °F 89.3 °F 80.6 °F 100% 29.93 in 7.0 mi South 8.1 mph - N/A   Clear
6:15 AM 80.6 °F 89.3 °F 80.6 °F 100% 29.93 in 7.0 mi SSW 8.1 mph - N/A   Clear
6:35 AM 80.2 °F 88.0 °F 80.2 °F 100% 29.92 in 7.0 mi South 8.1 mph - N/A   Clear
6:55 AM 79.9 °F - 79.9 °F 100% 29.92 in 7.0 mi SSW 6.9 mph - N/A   Clear
7:15 AM 79.9 °F - 79.9 °F 100% 29.92 in 5.0 mi South 5.8 mph - N/A   Clear
7:35 AM 80.2 °F 88.0 °F 80.2 °F 100% 29.92 in 5.0 mi South 4.6 mph - N/A   Clear
7:55 AM 81.0 °F 90.6 °F 81.0 °F 100% 29.93 in 5.0 mi South 4.6 mph - N/A   Clear
8:15 AM 81.9 °F 94.0 °F 81.9 °F 100% 29.93 in 7.0 mi South 5.8 mph - N/A   Clear
8:35 AM 83.3 °F 99.7 °F 83.3 °F 100% 29.93 in 7.0 mi South 9.2 mph - N/A   Clear
8:55 AM 84.6 °F 99.5 °F 81.0 °F 89% 29.93 in 7.0 mi South 10.4 mph - N/A   Scattered Clouds
9:15 AM 85.8 °F 97.8 °F 77.9 °F 77% 29.95 in 7.0 mi South 13.8 mph - N/A   Scattered Clouds
9:35 AM 86.4 °F 97.4 °F 76.6 °F 73% 29.95 in 7.0 mi South 12.7 mph 17.3 mph N/A   Scattered Clouds
9:55 AM 88.3 °F 98.9 °F 75.7 °F 66% 29.95 in 7.0 mi SSW 15.0 mph 19.6 mph N/A   Scattered Clouds
10:15 AM 90.3 °F 100.4 °F 74.7 °F 60% 29.95 in 7.0 mi SSW 15.0 mph 20.7 mph N/A   Scattered Clouds
10:35 AM 91.2 °F 100.8 °F 73.9 °F 57% 29.95 in 7.0 mi SSW 16.1 mph - N/A   Scattered Clouds
10:55 AM 92.1 °F 101.1 °F 73.4 °F 54% 29.95 in 7.0 mi SSW 16.1 mph 20.7 mph N/A   Scattered Clouds
11:15 AM 92.8 °F 102.2 °F 73.2 °F 53% 29.96 in 7.0 mi South 17.3 mph 20.7 mph N/A   Scattered Clouds
11:35 AM 93.6 °F 103.2 °F 73.4 °F 52% 29.96 in 7.0 mi SSW 12.7 mph 18.4 mph N/A   Mostly Cloudy
11:55 AM 93.6 °F 100.7 °F 71.4 °F 48% 29.95 in 7.0 mi SW 13.8 mph 21.9 mph N/A   Scattered Clouds
12:15 PM 94.8 °F 101.5 °F 70.7 °F 45% 29.95 in 7.0 mi SW 12.7 mph - N/A   Clear
12:35 PM 95.0 °F 101.9 °F 70.5 °F 45% 29.96 in 7.0 mi SW 15.0 mph 23.0 mph N/A   Clear
12:55 PM 95.5 °F 102.4 °F 70.3 °F 44% 29.95 in 7.0 mi SSW 16.1 mph 21.9 mph N/A   Clear
1:15 PM 95.9 °F 102.5 °F 70.0 °F 43% 29.95 in 7.0 mi SSW 12.7 mph 20.7 mph N/A   Scattered Clouds
1:35 PM 96.4 °F 102.4 °F 69.3 °F 41% 29.94 in 7.0 mi SSW 12.7 mph - N/A   Clear
1:55 PM 96.1 °F 102.3 °F 69.6 °F 42% 29.94 in 7.0 mi SSW 11.5 mph 19.6 mph N/A   Clear
2:15 PM 96.3 °F 102.6 °F 69.8 °F 42% 29.93 in 7.0 mi South 12.7 mph 19.6 mph N/A   Scattered Clouds
2:35 PM 96.4 °F 103.0 °F 70.2 °F 42% 29.93 in 7.0 mi South 13.8 mph 17.3 mph N/A   Clear
2:55 PM 96.8 °F 103.8 °F 70.0 °F 42% 29.92 in 7.0 mi South 15.0 mph 20.7 mph N/A   Clear
3:15 PM 96.4 °F 103.7 °F 70.7 °F 43% 29.92 in 7.0 mi SSW 13.8 mph 20.7 mph N/A   Clear
3:35 PM 96.1 °F 104.9 °F 72.3 °F 46% 29.90 in 7.0 mi SSE 15.0 mph 19.6 mph N/A   Clear
3:55 PM 95.5 °F 104.4 °F 72.7 °F 47% 29.90 in 7.0 mi South 17.3 mph 21.9 mph N/A   Clear
4:15 PM 94.6 °F 102.4 °F 71.8 °F 47% 29.89 in 7.0 mi South 12.7 mph 21.9 mph N/A   Clear
4:35 PM 94.8 °F 101.5 °F 70.7 °F 45% 29.89 in 7.0 mi South 15.0 mph 20.7 mph N/A   Clear
4:55 PM 94.6 °F 101.1 °F 70.5 °F 45% 29.89 in 7.0 mi South 13.8 mph 19.6 mph N/A   Clear
5:15 PM 93.7 °F 100.5 °F 70.7 °F 47% 29.88 in 7.0 mi SSE 13.8 mph - N/A   Clear
5:35 PM 93.6 °F 100.7 °F 71.4 °F 48% 29.88 in 7.0 mi SSE 11.5 mph - N/A   Clear
5:55 PM 92.8 °F 101.5 °F 72.7 °F 52% 29.87 in 7.0 mi SSE 12.7 mph 20.7 mph N/A   Clear
6:15 PM 91.8 °F 101.5 °F 73.9 °F 56% 29.87 in 7.0 mi SSE 13.8 mph - N/A   Clear
6:35 PM 90.5 °F 100.3 °F 74.5 °F 59% 29.87 in 7.0 mi SE 12.7 mph - N/A   Clear
6:55 PM 89.4 °F 100.0 °F 75.2 °F 63% 29.87 in 7.0 mi SSE 12.7 mph - N/A   Scattered Clouds
7:15 PM 88.3 °F 98.9 °F 75.6 °F 66% 29.87 in 7.0 mi SSE 11.5 mph 16.1 mph N/A   Scattered Clouds
7:35 PM 87.3 °F 97.2 °F 75.6 °F 68% 29.87 in 7.0 mi SSE 13.8 mph 17.3 mph N/A   Clear
7:55 PM 86.2 °F 96.4 °F 76.1 °F 72% 29.88 in 7.0 mi SSE 10.4 mph - N/A   Clear
8:15 PM 84.9 °F 94.9 °F 76.5 °F 76% 29.88 in 7.0 mi SE 9.2 mph - N/A   Clear
8:35 PM 84.0 °F 93.3 °F 76.5 °F 78% 29.89 in 7.0 mi SE 8.1 mph - N/A   Clear
8:55 PM 83.5 °F 92.6 °F 76.6 °F 80% 29.89 in 7.0 mi SSE 6.9 mph - N/A   Clear
9:15 PM 82.9 °F 91.8 °F 77.0 °F 82% 29.90 in 7.0 mi SSE 5.8 mph - N/A   Clear
9:35 PM 82.4 °F 90.9 °F 77.2 °F 84% 29.90 in 7.0 mi SSE 6.9 mph - N/A   Clear
9:55 PM 82.2 °F 90.7 °F 77.2 °F 85% 29.90 in 7.0 mi SSE 8.1 mph - N/A   Clear
10:15 PM 81.7 °F 89.5 °F 77.0 °F 86% 29.91 in 7.0 mi SSE 5.8 mph - N/A   Clear
10:35 PM 81.5 °F 89.0 °F 77.0 °F 86% 29.91 in 7.0 mi SSE 5.8 mph - N/A   Clear
10:55 PM 81.9 °F 90.0 °F 77.2 °F 86% 29.92 in 7.0 mi SSE 8.1 mph - N/A   Clear
11:15 PM 82.4 °F 91.2 °F 77.4 °F 85% 29.92 in 7.0 mi SSE 9.2 mph - N/A   Scattered Clouds
11:35 PM 82.4 °F 90.9 °F 77.0 °F 84% 29.92 in 7.0 mi SSE 8.1 mph - N/A   Clear
11:55 PM 82.2 °F 90.4 °F 77.0 °F 84% 29.92 in 5.0 mi SSE 8.1 mph - N/A   Haze